| time (UTC) | temp F | wind direction | speed knots | gust knots | rain 1hr in | rain 24hr in | rain mn in | humidity % | barometer mb |
| 20260906113358 | 80 | 293 | 0.0 | 1.7 | 0.00 | 0.00 | 0.00 | 71 | 1015.5 |
| 20260906112854 | 80 | 281 | 0.9 | 2.6 | 0.00 | 0.00 | 0.00 | 71 | 1015.4 |
| 20260906112349 | 80 | 279 | 0.9 | 2.6 | 0.00 | 0.00 | 0.00 | 72 | 1015.3 |
| 20260906111849 | 81 | 269 | 0.0 | 1.7 | 0.00 | 0.00 | 0.00 | 64 | 1015.4 |
| 20260906111349 | 81 | 76 | 0.0 | 1.7 | 0.02 | 0.00 | 0.00 | 60 | 1015.4 |
| 20260906110844 | 81 | 209 | 0.9 | 1.7 | 0.02 | 0.00 | 0.00 | 63 | 1015.4 |
| 20260906110340 | 82 | 197 | 0.0 | 0.9 | 0.00 | 0.00 | 0.00 | 57 | 1015.1 |
| 20260906105838 | 83 | 99 | 0.0 | 0.9 | 0.00 | 0.00 | 0.00 | 61 | 1015.4 |
| 20260906105335 | 84 | 75 | 0.0 | 1.7 | 0.00 | 0.00 | 0.00 | 51 | 1014.9 |
| 20260906104831 | 84 | 60 | 1.7 | 1.7 | 0.00 | 0.00 | 0.00 | 47 | 1015.0 |
| 20260906104329 | 84 | 61 | 0.9 | 1.7 | 0.00 | 0.00 | 0.00 | 45 | 1015.0 |
| 20260906103827 | 84 | 60 | 1.7 | 1.7 | 0.00 | 0.00 | 0.00 | 45 | 1015.0 |
| 20260906103326 | 84 | 359 | 1.7 | 1.7 | 0.00 | 0.00 | 0.00 | 46 | 1014.9 |
| 20260906102822 | 84 | 328 | 0.9 | 1.7 | 0.00 | 0.00 | 0.00 | 45 | 1014.9 |
| 20260906102321 | 84 | 266 | 0.9 | 1.7 | 0.00 | 0.00 | 0.00 | 46 | 1014.8 |
| 20260906101816 | 84 | 297 | 0.0 | 0.9 | 0.00 | 0.00 | 0.00 | 45 | 1014.8 |
| 20260906101312 | 84 | 256 | 0.0 | 0.9 | 0.00 | 0.00 | 0.00 | 45 | 1014.6 |
| 20260906100807 | 84 | 68 | 0.0 | 1.7 | 0.00 | 0.00 | 0.00 | 45 | 1014.8 |
| 20260906100306 | 84 | 266 | 0.0 | 1.7 | 0.00 | 0.00 | 0.00 | 45 | 1014.7 |
| 20260906095801 | 84 | 70 | 0.0 | 1.7 | 0.00 | 0.00 | 0.00 | 45 | 1014.7 |
| 20260906095252 | 84 | 72 | 0.0 | 0.9 | 0.00 | 0.00 | 0.00 | 45 | 1014.6 |
| 20260906094750 | 84 | 69 | 0.0 | 0.9 | 0.00 | 0.00 | 0.00 | 45 | 1014.7 |
| 20260906094245 | 85 | 269 | 0.0 | 0.9 | 0.00 | 0.00 | 0.00 | 45 | 1014.7 |
| 20260906093741 | 85 | 325 | 0.9 | 1.7 | 0.00 | 0.00 | 0.00 | 44 | 1014.8 |
| 20260906093236 | 85 | 319 | 1.7 | 1.7 | 0.00 | 0.00 | 0.00 | 44 | 1014.8 |
| 20260906092732 | 85 | 315 | 0.0 | 0.9 | 0.00 | 0.00 | 0.00 | 43 | 1014.6 |
| 20260906092226 | 86 | 80 | 0.0 | 1.7 | 0.00 | 0.00 | 0.00 | 44 | 1014.9 |
| 20260906091722 | 86 | 68 | 0.0 | 0.9 | 0.00 | 0.00 | 0.00 | 44 | 1015.1 |
| 20260906091213 | 86 | 63 | 0.0 | 0.9 | 0.00 | 0.00 | 0.00 | 44 | 1015.1 |
| 20260906090709 | 86 | 304 | 0.9 | 1.7 | 0.00 | 0.00 | 0.00 | 44 | 1015.0 |
| 20260906090208 | 86 | 323 | 0.0 | 0.9 | 0.00 | 0.00 | 0.00 | 43 | 1015.1 |
| 20260906085707 | 86 | 49 | 0.0 | 1.7 | 0.00 | 0.00 | 0.00 | 43 | 1015.0 |
| 20260906085206 | 85 | 64 | 1.7 | 2.6 | 0.00 | 0.00 | 0.00 | 44 | 1015.4 |
| 20260906084701 | 86 | 68 | 1.7 | 1.7 | 0.00 | 0.00 | 0.00 | 46 | 1015.0 |
| 20260906084200 | 86 | 91 | 0.9 | 1.7 | 0.00 | 0.00 | 0.00 | 45 | 1015.2 |
| 20260906083655 | 86 | 301 | 0.0 | 1.7 | 0.00 | 0.00 | 0.00 | 45 | 1015.1 |
| 20260906083151 | 86 | 53 | 0.0 | 0.0 | 0.00 | 0.00 | 0.00 | 44 | 1015.2 |
| 20260906082646 | 86 | 280 | 1.7 | 2.6 | 0.00 | 0.00 | 0.00 | 43 | 1015.0 |
| 20260906082141 | 86 | 282 | 0.0 | 0.9 | 0.00 | 0.00 | 0.00 | 43 | 1015.3 |
| 20260906081637 | 86 | 235 | 0.0 | 1.7 | 0.00 | 0.00 | 0.00 | 43 | 1015.5 |
| 20260906081132 | 86 | 298 | 0.0 | 1.7 | 0.00 | 0.00 | 0.00 | 43 | 1015.4 |
| 20260906080629 | 87 | 266 | 0.0 | 1.7 | 0.00 | 0.00 | 0.00 | 44 | 1015.7 |
| 20260906080124 | 86 | 254 | 0.0 | 1.7 | 0.00 | 0.00 | 0.00 | 43 | 1015.5 |
| 20260906075618 | 86 | 214 | 0.0 | 1.7 | 0.00 | 0.00 | 0.00 | 46 | 1015.6 |
| 20260906075113 | 86 | 307 | 0.0 | 1.7 | 0.00 | 0.00 | 0.00 | 43 | 1015.6 |
| 20260906074608 | 87 | 317 | 0.0 | 1.7 | 0.00 | 0.00 | 0.00 | 43 | 1015.4 |
| 20260906074108 | 86 | 82 | 0.9 | 2.6 | 0.00 | 0.00 | 0.00 | 41 | 1015.8 |
| 20260906073608 | 86 | 265 | 0.0 | 1.7 | 0.00 | 0.00 | 0.00 | 45 | 1015.5 |
| 20260906073104 | 86 | 68 | 0.9 | 1.7 | 0.00 | 0.00 | 0.00 | 44 | 1015.8 |
| 20260906072558 | 87 | 58 | 0.0 | 0.9 | 0.00 | 0.00 | 0.00 | 43 | 1015.6 |
| 20260906072054 | 87 | 3 | 0.0 | 1.7 | 0.00 | 0.00 | 0.00 | 41 | 1015.6 |
| 20260906071550 | 87 | 67 | 0.0 | 1.7 | 0.00 | 0.00 | 0.00 | 42 | 1015.4 |
| 20260906071040 | 87 | 71 | 1.7 | 2.6 | 0.00 | 0.00 | 0.00 | 43 | 1015.4 |
| 20260906070536 | 87 | 102 | 0.9 | 1.7 | 0.00 | 0.00 | 0.00 | 42 | 1015.6 |
| 20260906070032 | 88 | 37 | 0.0 | 0.9 | 0.00 | 0.00 | 0.00 | 41 | 1015.7 |
| 20260906065531 | 88 | 254 | 0.9 | 0.9 | 0.00 | 0.00 | 0.00 | 37 | 1015.7 |
| 20260906065027 | 88 | 104 | 0.0 | 1.7 | 0.00 | 0.00 | 0.00 | 37 | 1015.5 |
| 20260906064522 | 88 | 311 | 0.0 | 0.9 | 0.00 | 0.00 | 0.00 | 36 | 1015.6 |
| 20260906064017 | 88 | 269 | 0.0 | 1.7 | 0.00 | 0.00 | 0.00 | 36 | 1015.6 |
| 20260906063513 | 88 | 316 | 1.7 | 2.6 | 0.00 | 0.00 | 0.00 | 36 | 1015.4 |
| 20260906063008 | 89 | 37 | 0.0 | 0.9 | 0.00 | 0.00 | 0.00 | 36 | 1015.1 |
| 20260906062502 | 89 | 47 | 0.0 | 1.7 | 0.00 | 0.00 | 0.00 | 36 | 1015.3 |
| 20260906061957 | 89 | 64 | 0.0 | 1.7 | 0.00 | 0.00 | 0.00 | 36 | 1015.3 |
| 20260906061453 | 89 | 78 | 1.7 | 1.7 | 0.00 | 0.00 | 0.00 | 36 | 1015.3 |
| 20260906060947 | 89 | 199 | 0.0 | 1.7 | 0.00 | 0.00 | 0.00 | 36 | 1015.1 |
| 20260906060444 | 89 | 320 | 0.0 | 1.7 | 0.00 | 0.00 | 0.00 | 35 | 1015.5 |
| 20260906055940 | 89 | 119 | 1.7 | 2.6 | 0.00 | 0.00 | 0.00 | 36 | 1015.4 |
| 20260906055436 | 89 | 89 | 0.0 | 1.7 | 0.00 | 0.00 | 0.00 | 36 | 1015.4 |
| 20260906054931 | 89 | 72 | 0.0 | 1.7 | 0.00 | 0.00 | 0.00 | 35 | 1015.5 |
| 20260906054426 | 89 | 71 | 1.7 | 1.7 | 0.00 | 0.00 | 0.00 | 35 | 1015.5 |
| 20260906053922 | 89 | 72 | 1.7 | 2.6 | 0.00 | 0.00 | 0.00 | 35 | 1015.4 |
| 20260906053418 | 89 | 89 | 0.0 | 2.6 | 0.00 | 0.00 | 0.00 | 35 | 1015.4 |
| 20260906052913 | 89 | 143 | 0.0 | 2.6 | 0.00 | 0.00 | 0.00 | 36 | 1015.3 |
| 20260906052409 | 90 | 66 | 0.0 | 0.0 | 0.00 | 0.00 | 0.00 | 36 | 1015.4 |
| 20260906051906 | 90 | 72 | 0.9 | 2.6 | 0.00 | 0.00 | 0.00 | 36 | 1015.3 |
| 20260906051406 | 90 | 355 | 1.7 | 1.7 | 0.00 | 0.00 | 0.00 | 36 | 1015.3 |
| 20260906050902 | 90 | 352 | 0.9 | 2.6 | 0.00 | 0.00 | 0.00 | 35 | 1015.2 |
| 20260906050356 | 90 | 267 | 1.7 | 3.5 | 0.00 | 0.00 | 0.00 | 35 | 1015.3 |
| 20260906045855 | 90 | 23 | 2.6 | 3.5 | 0.00 | 0.00 | 0.00 | 35 | 1015.2 |
| 20260906045349 | 90 | 34 | 1.7 | 3.5 | 0.00 | 0.00 | 0.00 | 35 | 1015.3 |
| 20260906044846 | 91 | 5 | 0.9 | 2.6 | 0.00 | 0.00 | 0.00 | 35 | 1015.4 |
| 20260906044345 | 91 | 73 | 1.7 | 1.7 | 0.00 | 0.00 | 0.00 | 35 | 1015.3 |
| 20260906043841 | 91 | 32 | 1.7 | 4.3 | 0.00 | 0.00 | 0.00 | 35 | 1015.2 |
| 20260906043337 | 91 | 104 | 0.9 | 1.7 | 0.00 | 0.00 | 0.00 | 35 | 1015.1 |
| 20260906042832 | 91 | 81 | 0.0 | 3.5 | 0.00 | 0.00 | 0.00 | 34 | 1015.5 |
| 20260906042331 | 91 | 307 | 0.0 | 5.2 | 0.00 | 0.00 | 0.00 | 34 | 1015.2 |
| 20260906041826 | 91 | 298 | 4.3 | 7.8 | 0.00 | 0.00 | 0.00 | 35 | 1015.1 |
| 20260906041322 | 92 | 257 | 4.3 | 11.3 | 0.00 | 0.00 | 0.00 | 35 | 1014.9 |
| 20260906040817 | 91 | 305 | 5.2 | 7.0 | 0.00 | 0.00 | 0.00 | 34 | 1015.0 |
| 20260906040312 | 91 | 252 | 12.2 | 13.9 | 0.00 | 0.00 | 0.00 | 34 | 1014.7 |
| 20260906035808 | 91 | 267 | 7.0 | 12.2 | 0.00 | 0.00 | 0.00 | 34 | 1014.9 |
| 20260906035305 | 91 | 277 | 5.2 | 8.7 | 0.00 | 0.00 | 0.00 | 34 | 1014.8 |
| 20260906034758 | 91 | 305 | 6.1 | 8.7 | 0.00 | 0.00 | 0.00 | 34 | 1014.7 |
| 20260906034257 | 91 | 264 | 3.5 | 9.6 | 0.00 | 0.00 | 0.00 | 34 | 1014.5 |
| 20260906033754 | 92 | 289 | 1.7 | 8.7 | 0.00 | 0.00 | 0.00 | 34 | 1014.4 |
| 20260906033253 | 92 | 312 | 9.6 | 10.4 | 0.00 | 0.00 | 0.00 | 35 | 1014.5 |
| 20260906032749 | 92 | 257 | 3.5 | 9.6 | 0.00 | 0.00 | 0.00 | 35 | 1014.5 |
| 20260906032244 | 92 | 283 | 3.5 | 7.8 | 0.00 | 0.00 | 0.00 | 34 | 1014.4 |
| 20260906031739 | 92 | 298 | 8.7 | 11.3 | 0.00 | 0.00 | 0.00 | 33 | 1014.4 |
| 20260906031236 | 92 | 296 | 7.8 | 10.4 | 0.00 | 0.00 | 0.00 | 33 | 1014.4 |
| 20260906030734 | 92 | 285 | 4.3 | 10.4 | 0.00 | 0.00 | 0.00 | 32 | 1014.4 |
| 20260906030230 | 92 | 256 | 4.3 | 13.0 | 0.00 | 0.00 | 0.00 | 32 | 1014.1 |
| 20260906025729 | 92 | 265 | 5.2 | 12.2 | 0.00 | 0.00 | 0.00 | 32 | 1014.2 |
| 20260906025223 | 93 | 252 | 4.3 | 13.0 | 0.00 | 0.00 | 0.00 | 32 | 1014.0 |
| 20260906024723 | 93 | 259 | 7.8 | 11.3 | 0.00 | 0.00 | 0.00 | 32 | 1014.2 |
| 20260906024222 | 93 | 264 | 5.2 | 14.8 | 0.00 | 0.00 | 0.00 | 32 | 1014.3 |
| 20260906023718 | 93 | 266 | 9.6 | 16.5 | 0.00 | 0.00 | 0.00 | 32 | 1014.3 |
| 20260906023213 | 93 | 237 | 8.7 | 17.4 | 0.00 | 0.00 | 0.00 | 32 | 1014.0 |
| 20260906022708 | 93 | 260 | 9.6 | 11.3 | 0.00 | 0.00 | 0.00 | 32 | 1014.1 |
| 20260906022204 | 93 | 278 | 5.2 | 11.3 | 0.00 | 0.00 | 0.00 | 32 | 1013.9 |
| 20260906021700 | 94 | 273 | 3.5 | 11.3 | 0.00 | 0.00 | 0.00 | 32 | 1014.0 |
| 20260906021157 | 94 | 294 | 7.8 | 12.2 | 0.00 | 0.00 | 0.00 | 32 | 1014.2 |
| 20260906020647 | 94 | 258 | 6.1 | 7.8 | 0.00 | 0.00 | 0.00 | 32 | 1014.0 |
| 20260906020141 | 94 | 284 | 6.1 | 10.4 | 0.00 | 0.00 | 0.00 | 32 | 1014.1 |
| 20260906015636 | 95 | 286 | 5.2 | 9.6 | 0.00 | 0.00 | 0.00 | 32 | 1014.2 |
| 20260906015134 | 95 | 313 | 4.3 | 12.2 | 0.00 | 0.00 | 0.00 | 32 | 1014.1 |
| 20260906014629 | 95 | 282 | 4.3 | 10.4 | 0.00 | 0.00 | 0.00 | 33 | 1014.1 |
| 20260906014125 | 95 | 269 | 7.0 | 11.3 | 0.00 | 0.00 | 0.00 | 33 | 1014.1 |
| 20260906013620 | 96 | 250 | 3.5 | 7.0 | 0.00 | 0.00 | 0.00 | 32 | 1014.1 |
| 20260906013116 | 96 | 295 | 4.3 | 7.0 | 0.00 | 0.00 | 0.00 | 31 | 1014.0 |
| 20260906012611 | 96 | 261 | 3.5 | 6.1 | 0.00 | 0.00 | 0.00 | 31 | 1014.2 |
| 20260906012110 | 96 | 292 | 2.6 | 7.0 | 0.00 | 0.00 | 0.00 | 31 | 1014.0 |
| 20260906011606 | 96 | 280 | 3.5 | 5.2 | 0.00 | 0.00 | 0.00 | 30 | 1014.1 |
| 20260906011101 | 97 | 242 | 7.0 | 7.8 | 0.00 | 0.00 | 0.00 | 30 | 1014.1 |
| 20260906010556 | 97 | 248 | 1.7 | 6.1 | 0.00 | 0.00 | 0.00 | 29 | 1014.1 |
| 20260906010053 | 98 | 238 | 6.1 | 11.3 | 0.00 | 0.00 | 0.00 | 28 | 1014.0 |
| 20260906005551 | 99 | 254 | 3.5 | 9.6 | 0.00 | 0.00 | 0.00 | 28 | 1013.9 |
| 20260906005050 | 100 | 241 | 7.0 | 10.4 | 0.00 | 0.00 | 0.00 | 27 | 1014.0 |
| 20260906004550 | 100 | 264 | 10.4 | 11.3 | 0.00 | 0.00 | 0.00 | 27 | 1014.0 |
| 20260906004045 | 99 | 266 | 7.8 | 12.2 | 0.00 | 0.00 | 0.00 | 27 | 1013.8 |
| 20260906003540 | 100 | 234 | 9.6 | 17.4 | 0.00 | 0.00 | 0.00 | 26 | 1013.9 |
| 20260906003036 | 101 | 238 | 10.4 | 13.0 | 0.00 | 0.00 | 0.00 | 26 | 1013.8 |
| 20260906002531 | 101 | 243 | 3.5 | 9.6 | 0.00 | 0.00 | 0.00 | 26 | 1013.9 |
| 20260906002026 | 100 | 247 | 4.3 | 14.8 | 0.00 | 0.00 | 0.00 | 26 | 1013.7 |
| 20260906001521 | 102 | 223 | 4.3 | 9.6 | 0.00 | 0.00 | 0.00 | 25 | 1013.8 |
| 20260906001021 | 102 | 245 | 8.7 | 10.4 | 0.00 | 0.00 | 0.00 | 25 | 1013.7 |
| 20260906000517 | 101 | 233 | 9.6 | 14.8 | 0.00 | 0.00 | 0.00 | 25 | 1013.9 |
| 20260906000012 | 103 | 238 | 5.2 | 10.4 | 0.00 | 0.00 | 0.00 | 25 | 1013.6 |
| 20260905235506 | 102 | 230 | 1.7 | 13.0 | 0.00 | 0.00 | 0.00 | 24 | 1013.7 |
| 20260905235001 | 103 | 228 | 4.3 | 7.8 | 0.00 | 0.00 | 0.00 | 24 | 1013.7 |
| 20260905234456 | 103 | 214 | 5.2 | 11.3 | 0.00 | 0.00 | 0.00 | 24 | 1013.8 |
| 20260905233950 | 103 | 197 | 2.6 | 12.2 | 0.00 | 0.00 | 0.00 | 24 | 1013.8 |
| 20260905233447 | 103 | 236 | 7.0 | 13.0 | 0.00 | 0.00 | 0.00 | 23 | 1013.9 |
| 20260905232944 | 104 | 244 | 13.0 | 16.5 | 0.00 | 0.00 | 0.00 | 23 | 1013.8 |
| 20260905232441 | 103 | 210 | 2.6 | 8.7 | 0.00 | 0.00 | 0.00 | 23 | 1013.9 |
| 20260905231936 | 104 | 238 | 0.0 | 5.2 | 0.00 | 0.00 | 0.00 | 22 | 1013.8 |
| 20260905231432 | 103 | 180 | 3.5 | 6.1 | 0.00 | 0.00 | 0.00 | 23 | 1013.9 |
| 20260905230928 | 102 | 89 | 2.6 | 5.2 | 0.00 | 0.00 | 0.00 | 23 | 1013.9 |
| 20260905230426 | 100 | 241 | 3.5 | 5.2 | 0.00 | 0.00 | 0.00 | 24 | 1013.9 |
| 20260905225925 | 103 | 235 | 6.1 | 7.0 | 0.00 | 0.00 | 0.00 | 24 | 1014.3 |
| 20260905225420 | 100 | 245 | 7.0 | 10.4 | 0.00 | 0.00 | 0.00 | 25 | 1014.2 |
| 20260905224915 | 99 | 234 | 4.3 | 5.2 | 0.00 | 0.00 | 0.00 | 25 | 1014.2 |
| 20260905224411 | 99 | 243 | 5.2 | 7.0 | 0.00 | 0.00 | 0.00 | 25 | 1014.3 |
| 20260905223905 | 99 | 273 | 4.3 | 7.8 | 0.00 | 0.00 | 0.00 | 25 | 1014.2 |
| 20260905223403 | 100 | 237 | 9.6 | 11.3 | 0.00 | 0.00 | 0.00 | 25 | 1014.3 |
| 20260905222903 | 100 | 248 | 12.2 | 13.0 | 0.00 | 0.00 | 0.00 | 24 | 1014.4 |
| 20260905222402 | 99 | 302 | 2.6 | 8.7 | 0.00 | 0.00 | 0.00 | 25 | 1014.1 |
| 20260905221858 | 99 | 260 | 9.6 | 12.2 | 0.00 | 0.00 | 0.00 | 25 | 1014.2 |
| 20260905221355 | 100 | 261 | 3.5 | 13.0 | 0.00 | 0.00 | 0.00 | 25 | 1014.1 |
| 20260905220850 | 99 | 245 | 7.0 | 12.2 | 0.00 | 0.00 | 0.00 | 25 | 1014.4 |
| 20260905220347 | 100 | 236 | 6.1 | 13.9 | 0.00 | 0.00 | 0.00 | 26 | 1014.3 |
| 20260905215845 | 99 | 264 | 3.5 | 9.6 | 0.00 | 0.00 | 0.00 | 26 | 1014.6 |
| 20260905215341 | 98 | 226 | 4.3 | 6.1 | 0.00 | 0.00 | 0.00 | 25 | 1014.8 |
| 20260905214832 | 99 | 227 | 3.5 | 7.8 | 0.00 | 0.00 | 0.00 | 25 | 1014.8 |
| 20260905214327 | 100 | 252 | 5.2 | 8.7 | 0.00 | 0.00 | 0.00 | 25 | 1014.7 |
| 20260905213821 | 100 | 245 | 5.2 | 12.2 | 0.00 | 0.00 | 0.00 | 24 | 1014.7 |
| 20260905213318 | 99 | 251 | 7.0 | 10.4 | 0.00 | 0.00 | 0.00 | 25 | 1014.7 |
| 20260905212813 | 100 | 280 | 0.9 | 7.0 | 0.00 | 0.00 | 0.00 | 25 | 1014.8 |
| 20260905212312 | 100 | 228 | 4.3 | 12.2 | 0.00 | 0.00 | 0.00 | 25 | 1014.8 |
| 20260905211807 | 99 | 240 | 7.0 | 11.3 | 0.00 | 0.00 | 0.00 | 25 | 1015.0 |
| 20260905211302 | 98 | 243 | 4.3 | 11.3 | 0.00 | 0.00 | 0.00 | 25 | 1014.9 |
| 20260905210759 | 99 | 220 | 3.5 | 7.8 | 0.00 | 0.00 | 0.00 | 25 | 1015.0 |
| 20260905210253 | 99 | 247 | 8.7 | 8.7 | 0.00 | 0.00 | 0.00 | 25 | 1015.0 |
| 20260905205752 | 100 | 228 | 5.2 | 9.6 | 0.00 | 0.00 | 0.00 | 24 | 1015.0 |
| 20260905205246 | 100 | 200 | 5.2 | 7.0 | 0.00 | 0.00 | 0.00 | 24 | 1015.1 |
| 20260905204746 | 100 | 221 | 6.1 | 12.2 | 0.00 | 0.00 | 0.00 | 24 | 1015.3 |
| 20260905204242 | 100 | 245 | 6.1 | 12.2 | 0.00 | 0.00 | 0.00 | 23 | 1015.2 |
| 20260905203741 | 100 | 234 | 3.5 | 7.0 | 0.00 | 0.00 | 0.00 | 25 | 1015.2 |
| 20260905203237 | 100 | 258 | 4.3 | 13.0 | 0.00 | 0.00 | 0.00 | 24 | 1015.2 |
| 20260905202732 | 100 | 214 | 6.1 | 10.4 | 0.00 | 0.00 | 0.00 | 23 | 1015.2 |
| 20260905202227 | 100 | 254 | 5.2 | 12.2 | 0.00 | 0.00 | 0.00 | 23 | 1015.5 |
| 20260905201722 | 100 | 236 | 5.2 | 9.6 | 0.00 | 0.00 | 0.00 | 24 | 1015.4 |
| 20260905201223 | 103 | 236 | 5.2 | 7.0 | 0.00 | 0.00 | 0.00 | 18 | 1015.6 |
| 20260905200718 | 104 | 214 | 4.3 | 8.7 | 0.00 | 0.00 | 0.00 | 18 | 1015.5 |
| 20260905200214 | 101 | 135 | 2.6 | 6.1 | 0.00 | 0.00 | 0.00 | 18 | 1015.6 |
| 20260905195712 | 101 | 91 | 0.0 | 4.3 | 0.00 | 0.00 | 0.00 | 14 | 1015.8 |
| 20260905195206 | 102 | 254 | 6.1 | 7.0 | 0.00 | 0.00 | 0.00 | 14 | 1015.8 |
| 20260905194656 | 102 | 174 | 0.0 | 3.5 | 0.00 | 0.00 | 0.00 | 13 | 1015.9 |
| 20260905194155 | 100 | 107 | 5.2 | 8.7 | 0.00 | 0.00 | 0.00 | 13 | 1015.8 |
| 20260905193650 | 100 | 176 | 1.7 | 7.0 | 0.00 | 0.00 | 0.00 | 13 | 1016.2 |
| 20260905193145 | 100 | 125 | 1.7 | 5.2 | 0.00 | 0.00 | 0.00 | 13 | 1016.0 |
| 20260905192640 | 100 | 91 | 3.5 | 5.2 | 0.00 | 0.00 | 0.00 | 13 | 1016.1 |
| 20260905192137 | 101 | 192 | 1.7 | 8.7 | 0.00 | 0.00 | 0.00 | 12 | 1016.0 |
| 20260905191637 | 100 | 95 | 2.6 | 4.3 | 0.00 | 0.00 | 0.00 | 12 | 1016.1 |
| 20260905191134 | 101 | 97 | 4.3 | 6.1 | 0.00 | 0.00 | 0.00 | 12 | 1016.3 |
| 20260905190632 | 100 | 91 | 3.5 | 5.2 | 0.00 | 0.00 | 0.00 | 12 | 1016.3 |
| 20260905190127 | 101 | 104 | 4.3 | 5.2 | 0.00 | 0.00 | 0.00 | 11 | 1016.3 |
| 20260905185625 | 101 | 314 | 1.7 | 3.5 | 0.00 | 0.00 | 0.00 | 11 | 1016.1 |
| 20260905185119 | 101 | 45 | 1.7 | 3.5 | 0.00 | 0.00 | 0.00 | 11 | 1016.3 |
| 20260905184614 | 100 | 79 | 3.5 | 6.1 | 0.00 | 0.00 | 0.00 | 11 | 1016.5 |
| 20260905184113 | 100 | 100 | 4.3 | 6.1 | 0.00 | 0.00 | 0.00 | 11 | 1016.5 |
| 20260905183612 | 99 | 92 | 4.3 | 6.1 | 0.00 | 0.00 | 0.00 | 11 | 1016.6 |
| 20260905183108 | 99 | 215 | 1.7 | 4.3 | 0.00 | 0.00 | 0.00 | 11 | 1016.7 |
| 20260905182607 | 99 | 104 | 7.0 | 7.8 | 0.00 | 0.00 | 0.00 | 10 | 1016.7 |
| 20260905182102 | 98 | 248 | 1.7 | 6.1 | 0.00 | 0.00 | 0.00 | 10 | 1016.6 |
| 20260905181602 | 99 | 89 | 1.7 | 3.5 | 0.00 | 0.00 | 0.00 | 13 | 1016.7 |
| 20260905181101 | 99 | 106 | 4.3 | 7.0 | 0.00 | 0.00 | 0.00 | 12 | 1016.8 |
| 20260905180556 | 101 | 141 | 1.7 | 1.7 | 0.00 | 0.00 | 0.00 | 10 | 1016.8 |
| 20260905180051 | 99 | 94 | 0.0 | 2.6 | 0.00 | 0.00 | 0.00 | 11 | 1016.9 |
| 20260905175550 | 99 | 317 | 1.7 | 3.5 | 0.00 | 0.00 | 0.00 | 11 | 1016.8 |
| 20260905175046 | 100 | 355 | 2.6 | 2.6 | 0.00 | 0.00 | 0.00 | 11 | 1016.7 |
| 20260905174542 | 99 | 195 | 0.0 | 2.6 | 0.00 | 0.00 | 0.00 | 10 | 1016.8 |
| 20260905174037 | 97 | 261 | 1.7 | 4.3 | 0.00 | 0.00 | 0.00 | 10 | 1016.8 |
| 20260905173534 | 97 | 250 | 3.5 | 3.5 | 0.00 | 0.00 | 0.00 | 9 | 1016.9 |
| 20260905173029 | 98 | 299 | 0.9 | 2.6 | 0.00 | 0.00 | 0.00 | 10 | 1016.8 |
| 20260905172528 | 97 | 62 | 1.7 | 3.5 | 0.00 | 0.00 | 0.00 | 9 | 1016.8 |
| 20260905172023 | 97 | 111 | 1.7 | 3.5 | 0.00 | 0.00 | 0.00 | 9 | 1016.7 |
| 20260905171519 | 98 | 106 | 2.6 | 5.2 | 0.00 | 0.00 | 0.00 | 9 | 1016.8 |
| 20260905171015 | 97 | 142 | 2.6 | 4.3 | 0.00 | 0.00 | 0.00 | 9 | 1016.8 |
| 20260905170512 | 96 | 173 | 1.7 | 2.6 | 0.00 | 0.00 | 0.00 | 9 | 1016.7 |
| 20260905170007 | 95 | 112 | 2.6 | 4.3 | 0.00 | 0.00 | 0.00 | 9 | 1016.8 |
| 20260905165501 | 96 | 102 | 1.7 | 1.7 | 0.00 | 0.00 | 0.00 | 9 | 1016.8 |
| 20260905164955 | 93 | 27 | 0.9 | 3.5 | 0.00 | 0.00 | 0.00 | 10 | 1016.7 |
| 20260905164450 | 92 | 75 | 1.7 | 1.7 | 0.00 | 0.00 | 0.00 | 10 | 1016.6 |
| 20260905163945 | 90 | 30 | 0.9 | 1.7 | 0.00 | 0.00 | 0.00 | 11 | 1016.8 |
| 20260905163442 | 91 | 89 | 2.6 | 2.6 | 0.00 | 0.00 | 0.00 | 10 | 1016.6 |
| 20260905162937 | 89 | 319 | 0.0 | 1.7 | 0.00 | 0.00 | 0.00 | 10 | 1016.6 |
| 20260905162433 | 89 | 88 | 1.7 | 1.7 | 0.00 | 0.00 | 0.00 | 10 | 1016.7 |
| 20260905161927 | 89 | 245 | 0.0 | 1.7 | 0.00 | 0.00 | 0.00 | 10 | 1016.6 |
| 20260905161426 | 89 | 293 | 1.7 | 3.5 | 0.00 | 0.00 | 0.00 | 9 | 1016.7 |
| 20260905160925 | 89 | 297 | 1.7 | 1.7 | 0.00 | 0.00 | 0.00 | 10 | 1016.6 |
| 20260905160419 | 88 | 328 | 1.7 | 3.5 | 0.00 | 0.00 | 0.00 | 11 | 1016.3 |
| 20260905155918 | 88 | 331 | 0.9 | 2.6 | 0.00 | 0.00 | 0.00 | 10 | 1016.5 |
| 20260905155419 | 88 | 262 | 2.6 | 3.5 | 0.00 | 0.00 | 0.00 | 9 | 1016.7 |
| 20260905154917 | 87 | 257 | 3.5 | 5.2 | 0.00 | 0.00 | 0.00 | 9 | 1016.7 |
| 20260905154413 | 87 | 269 | 0.0 | 2.6 | 0.00 | 0.00 | 0.00 | 10 | 1016.9 |
| 20260905153909 | 88 | 237 | 0.0 | 1.7 | 0.00 | 0.00 | 0.00 | 10 | 1016.7 |
| 20260905153405 | 89 | 205 | 0.9 | 1.7 | 0.00 | 0.00 | 0.00 | 11 | 1016.6 |
| 20260905152904 | 90 | 232 | 1.7 | 1.7 | 0.00 | 0.00 | 0.00 | 10 | 1016.7 |
| 20260905152404 | 92 | 132 | 0.0 | 0.9 | 0.00 | 0.00 | 0.00 | 10 | 1016.7 |
| 20260905151859 | 91 | 27 | 0.0 | 0.9 | 0.00 | 0.00 | 0.00 | 10 | 1016.6 |
| 20260905151354 | 91 | 44 | 0.0 | 1.7 | 0.00 | 0.00 | 0.00 | 11 | 1016.3 |
| 20260905150849 | 89 | 330 | 0.9 | 1.7 | 0.00 | 0.00 | 0.00 | 10 | 1016.5 |
| 20260905150343 | 89 | 72 | 0.0 | 1.7 | 0.00 | 0.00 | 0.00 | 11 | 1016.3 |
| 20260905145841 | 86 | 36 | 0.9 | 1.7 | 0.00 | 0.00 | 0.00 | 12 | 1016.3 |
| 20260905145341 | 81 | 347 | 1.7 | 1.7 | 0.00 | 0.00 | 0.00 | 13 | 1016.2 |
| 20260905144839 | 80 | 9 | 0.0 | 1.7 | 0.00 | 0.00 | 0.00 | 15 | 1016.1 |
| 20260905144335 | 80 | 6 | 1.7 | 2.6 | 0.00 | 0.00 | 0.00 | 14 | 1016.1 |
| 20260905143834 | 81 | 294 | 1.7 | 1.7 | 0.00 | 0.00 | 0.00 | 12 | 1016.2 |
| 20260905143328 | 80 | 222 | 0.9 | 1.7 | 0.00 | 0.00 | 0.00 | 13 | 1016.1 |
| 20260905142828 | 79 | 67 | 0.9 | 2.6 | 0.00 | 0.00 | 0.00 | 13 | 1016.0 |
| 20260905142321 | 79 | 282 | 0.0 | 1.7 | 0.00 | 0.00 | 0.00 | 13 | 1016.0 |
| 20260905141818 | 78 | 194 | 0.9 | 2.6 | 0.00 | 0.00 | 0.00 | 13 | 1015.8 |
| 20260905141313 | 79 | 67 | 1.7 | 2.6 | 0.00 | 0.00 | 0.00 | 12 | 1015.9 |
| 20260905140808 | 78 | 126 | 0.0 | 1.7 | 0.00 | 0.00 | 0.00 | 12 | 1015.8 |
| 20260905140303 | 77 | 175 | 1.7 | 1.7 | 0.00 | 0.00 | 0.00 | 14 | 1015.8 |
| 20260905135801 | 77 | 72 | 0.0 | 1.7 | 0.00 | 0.00 | 0.00 | 14 | 1015.6 |
| 20260905135258 | 77 | 107 | 2.6 | 3.5 | 0.00 | 0.00 | 0.00 | 15 | 1015.5 |
| 20260905134757 | 78 | 63 | 2.6 | 2.6 | 0.00 | 0.00 | 0.00 | 15 | 1015.5 |
| 20260905134251 | 81 | 274 | 1.7 | 3.5 | 0.00 | 0.00 | 0.00 | 13 | 1015.4 |
| 20260905133745 | 84 | 179 | 0.0 | 2.6 | 0.00 | 0.00 | 0.00 | 11 | 1015.0 |
| 20260905133241 | 84 | 275 | 3.5 | 4.3 | 0.00 | 0.00 | 0.00 | 11 | 1015.4 |
| 20260905132740 | 83 | 230 | 3.5 | 7.8 | 0.00 | 0.00 | 0.00 | 11 | 1015.1 |
| 20260905132235 | 83 | 0 | 1.7 | 3.5 | 0.00 | 0.00 | 0.00 | 11 | 1015.1 |
| 20260905131730 | 81 | 66 | 0.0 | 2.6 | 0.00 | 0.00 | 0.00 | 12 | 1015.1 |
| 20260905131225 | 78 | 266 | 0.9 | 3.5 | 0.00 | 0.00 | 0.00 | 13 | 1015.0 |
| 20260905130720 | 78 | 318 | 1.7 | 2.6 | 0.00 | 0.00 | 0.00 | 14 | 1014.9 |
| 20260905130219 | 78 | 334 | 1.7 | 2.6 | 0.00 | 0.00 | 0.00 | 14 | 1015.0 |
| 20260905125715 | 78 | 341 | 2.6 | 3.5 | 0.00 | 0.00 | 0.00 | 14 | 1015.2 |
| 20260905125210 | 78 | 228 | 0.0 | 0.9 | 0.00 | 0.00 | 0.00 | 15 | 1015.1 |
| 20260905124706 | 78 | 67 | 1.7 | 1.7 | 0.00 | 0.00 | 0.00 | 14 | 1015.2 |
| 20260905124201 | 79 | 116 | 0.0 | 0.9 | 0.00 | 0.00 | 0.00 | 15 | 1015.0 |
| 20260905123656 | 80 | 241 | 0.0 | 1.7 | 0.00 | 0.00 | 0.00 | 14 | 1015.0 |
| 20260905123154 | 81 | 338 | 0.9 | 3.5 | 0.00 | 0.00 | 0.00 | 13 | 1015.1 |
| 20260905122653 | 82 | 338 | 2.6 | 5.2 | 0.00 | 0.00 | 0.00 | 10 | 1015.0 |
| 20260905122148 | 80 | 233 | 2.6 | 3.5 | 0.00 | 0.00 | 0.00 | 11 | 1015.2 |
| 20260905121643 | 77 | 62 | 0.0 | 2.6 | 0.00 | 0.00 | 0.00 | 12 | 1015.0 |
| 20260905121138 | 76 | 45 | 0.0 | 1.7 | 0.00 | 0.00 | 0.00 | 17 | 1015.0 |
| 20260905120637 | 76 | 246 | 0.0 | 1.7 | 0.00 | 0.00 | 0.00 | 17 | 1015.3 |
| 20260905120132 | 80 | 354 | 0.9 | 5.2 | 0.00 | 0.00 | 0.00 | 14 | 1014.9 |
| 20260905115631 | 79 | 320 | 1.7 | 1.7 | 0.00 | 0.00 | 0.00 | 11 | 1014.8 |
| 20260905115126 | 80 | 307 | 1.7 | 4.3 | 0.00 | 0.00 | 0.00 | 13 | 1015.1 |
| 20260905114626 | 79 | 229 | 1.7 | 1.7 | 0.00 | 0.00 | 0.00 | 14 | 1015.0 |
| 20260905114125 | 78 | 252 | 1.7 | 2.6 | 0.00 | 0.00 | 0.00 | 13 | 1014.8 |
| 20260905113620 | 76 | 229 | 2.6 | 3.5 | 0.00 | 0.00 | 0.00 | 16 | 1015.0 |